"Period start","avg(HW err(1)/warn(2) (#))","avg(Visibility (m))","avg(Weather code (#))","avg(Precip intensity (mm/h))","min(HW err(1)/warn(2) (#))","max(HW err(1)/warn(2) (#))","std(HW err(1)/warn(2) (#))","med(HW err(1)/warn(2) (#))","min(Visibility (m))","max(Visibility (m))","std(Visibility (m))","med(Visibility (m))","min(Weather code (#))","max(Weather code (#))","std(Weather code (#))","med(Weather code (#))","min(Precip intensity (mm/h))","max(Precip intensity (mm/h))","std(Precip intensity (mm/h))","med(Precip intensity (mm/h))"
2014-03-21 00:00:00,2,30072,0,0.00,2,2,0,2,21949,39999,4728,29498,0,0,0,0,0.00,0.00,0.00,0.00
2014-03-21 00:10:00,2,29959,0,0.00,2,2,0,2,23777,44819,6444,27546,0,0,0,0,0.00,0.00,0.00,0.00
2014-03-21 00:20:00,2,31124,0,0.00,2,2,0,2,26959,36812,2921,30814,0,0,0,0,0.00,0.00,0.00,0.00
2014-03-21 00:30:00,2,29093,0,0.00,2,2,0,2,22025,35231,4337,28555,0,0,0,0,0.00,0.00,0.00,0.00
2014-03-21 00:40:00,2,23566,0,0.00,2,2,0,2,17664,34149,4256,23136,0,0,0,0,0.00,0.00,0.00,0.00
2014-03-21 00:50:00,2,26796,0,0.00,2,2,0,2,20122,33827,5157,27626,0,0,0,0,0.00,0.00,0.00,0.00
2014-03-21 01:00:00,2,30727,0,0.00,2,2,0,2,18973,47472,9138,30957,0,0,0,0,0.00,0.00,0.00,0.00
2014-03-21 01:10:00,2,29865,0,0.00,2,2,0,2,20101,40094,7085,28840,0,0,0,0,0.00,0.00,0.00,0.00
2014-03-21 01:20:00,2,28326,0,0.00,2,2,0,2,17237,41373,7986,26820,0,0,0,0,0.00,0.00,0.00,0.00
2014-03-21 01:30:00,2,28452,0,0.00,2,2,0,2,20196,33933,4676,30026,0,0,0,0,0.00,0.00,0.00,0.00
2014-03-21 01:40:00,2,29511,0,0.00,2,2,0,2,19451,41890,7389,28032,0,0,0,0,0.00,0.00,0.00,0.00
2014-03-21 01:50:00,2,28286,0,0.00,2,2,0,2,21327,41497,5999,27440,0,0,0,0,0.00,0.00,0.00,0.00
2014-03-21 02:00:00,2,34217,0,0.00,2,2,0,2,18556,47982,9243,35888,0,0,0,0,0.00,0.00,0.00,0.00
2014-03-21 02:10:00,2,28826,0,0.00,2,2,0,2,18018,47549,9122,25948,0,0,0,0,0.00,0.00,0.00,0.00
2014-03-21 02:20:00,2,29206,0,0.00,2,2,0,2,18128,40831,7181,29306,0,0,0,0,0.00,0.00,0.00,0.00
2014-03-21 02:30:00,2,36145,0,0.00,2,2,0,2,16413,50000,11842,35807,0,0,0,0,0.00,0.00,0.00,0.00
2014-03-21 02:40:00,2,30164,0,0.00,2,2,0,2,22285,40319,5675,30172,0,0,0,0,0.00,0.00,0.00,0.00
2014-03-21 02:50:00,2,30630,0,0.00,2,2,0,2,20580,50000,8898,28659,0,0,0,0,0.00,0.00,0.00,0.00
2014-03-21 03:00:00,2,33621,0,0.00,2,2,0,2,19999,49180,9417,35120,0,0,0,0,0.00,0.00,0.00,0.00
2014-03-21 03:10:00,2,31527,0,0.00,2,2,0,2,15875,50000,10528,27843,0,0,0,0,0.00,0.00,0.00,0.00
2014-03-21 03:20:00,2,31520,0,0.00,2,2,0,2,23188,40263,5809,32920,0,0,0,0,0.00,0.00,0.00,0.00
2014-03-21 03:30:00,2,32800,0,0.00,2,2,0,2,20922,47949,8297,31330,0,0,0,0,0.00,0.00,0.00,0.00
2014-03-21 03:40:00,2,38790,0,0.00,2,2,0,2,26900,50000,7975,38752,0,0,0,0,0.00,0.00,0.00,0.00
2014-03-21 03:50:00,2,29799,0,0.00,2,2,0,2,20652,38019,5125,28724,0,0,0,0,0.00,0.00,0.00,0.00
2014-03-21 04:00:00,2,33389,0,0.00,2,2,0,2,23704,41226,5531,34216,0,0,0,0,0.00,0.00,0.00,0.00
2014-03-21 04:10:00,2,32063,0,0.00,2,2,0,2,26256,39611,4533,31257,0,0,0,0,0.00,0.00,0.00,0.00
2014-03-21 04:20:00,2,30958,0,0.00,2,2,0,2,23307,43567,6176,29529,0,0,0,0,0.00,0.00,0.00,0.00
2014-03-21 04:30:00,2,27753,0,0.00,2,2,0,2,22782,34295,4136,26636,0,0,0,0,0.00,0.00,0.00,0.00
2014-03-21 04:40:00,2,35828,0,0.00,2,2,0,2,24338,47494,7262,34676,0,0,0,0,0.00,0.00,0.00,0.00
2014-03-21 04:50:00,2,34198,0,0.00,2,2,0,2,24420,47582,7083,33970,0,0,0,0,0.00,0.00,0.00,0.00
2014-03-21 05:00:00,2,33651,0,0.00,2,2,0,2,21217,49850,11030,28106,0,0,0,0,0.00,0.00,0.00,0.00
2014-03-21 05:10:00,2,41814,0,0.00,2,2,0,2,32919,50000,6251,41428,0,0,0,0,0.00,0.00,0.00,0.00
2014-03-21 05:20:00,2,41468,0,0.00,2,2,0,2,22598,50000,8504,44428,0,0,0,0,0.00,0.00,0.00,0.00
2014-03-21 05:30:00,2,37082,0,0.00,2,2,0,2,27349,47278,5629,35836,0,0,0,0,0.00,0.00,0.00,0.00
2014-03-21 05:40:00,2,31383,0,0.00,2,2,0,2,23671,44360,6076,30212,0,0,0,0,0.00,0.00,0.00,0.00
2014-03-21 05:50:00,2,35235,0,0.00,2,2,0,2,28168,48587,6715,32144,0,0,0,0,0.00,0.00,0.00,0.00
2014-03-21 06:00:00,2,31462,0,0.00,2,2,0,2,22256,41543,5358,30507,0,0,0,0,0.00,0.00,0.00,0.00
2014-03-21 06:10:00,2,36819,0,0.00,2,2,0,2,26139,48686,6995,37762,0,0,0,0,0.00,0.00,0.00,0.00
2014-03-21 06:20:00,2,41609,0,0.00,2,2,0,2,30378,50000,6995,41004,0,0,0,0,0.00,0.00,0.00,0.00
2014-03-21 06:30:00,2,37346,0,0.00,2,2,0,2,29396,47421,4788,37708,0,0,0,0,0.00,0.00,0.00,0.00
2014-03-21 06:40:00,2,42170,0,0.00,2,2,0,2,30602,50000,6364,43534,0,0,0,0,0.00,0.00,0.00,0.00
2014-03-21 06:50:00,2,41134,0,0.00,2,2,0,2,28275,50000,8013,43960,0,0,0,0,0.00,0.00,0.00,0.00
2014-03-21 07:00:00,2,31780,0,0.00,2,2,0,2,20864,46375,8152,30698,0,0,0,0,0.00,0.00,0.00,0.00
2014-03-21 07:10:00,2,43745,0,0.00,2,2,0,2,26840,50000,7307,46960,0,0,0,0,0.00,0.00,0.00,0.00
2014-03-21 07:20:00,2,42161,0,0.00,2,2,0,2,36347,50000,4623,41258,0,0,0,0,0.00,0.00,0.00,0.00
2014-03-21 07:30:00,2,43297,0,0.00,2,2,0,2,30167,50000,6571,43402,0,0,0,0,0.00,0.00,0.00,0.00
2014-03-21 07:40:00,2,39152,0,0.00,2,2,0,2,34547,47102,4153,39026,0,0,0,0,0.00,0.00,0.00,0.00
2014-03-21 07:50:00,2,43394,0,0.00,2,2,0,2,33142,49895,4681,43262,0,0,0,0,0.00,0.00,0.00,0.00
2014-03-21 08:00:00,2,45342,0,0.00,2,2,0,2,35227,50000,4873,46420,0,0,0,0,0.00,0.00,0.00,0.00
2014-03-21 08:10:00,2,46135,0,0.00,2,2,0,2,41361,50000,3870,47448,0,0,0,0,0.00,0.00,0.00,0.00
2014-03-21 08:20:00,2,44056,0,0.00,2,2,0,2,34343,48817,4949,46537,0,0,0,0,0.00,0.00,0.00,0.00
2014-03-21 08:30:00,2,46686,0,0.00,2,2,0,2,42110,50000,2667,46736,0,0,0,0,0.00,0.00,0.00,0.00
2014-03-21 08:40:00,2,45040,0,0.00,2,2,0,2,37173,50000,4157,46052,0,0,0,0,0.00,0.00,0.00,0.00
2014-03-21 08:50:00,2,46419,0,0.00,2,2,0,2,44131,50000,1541,46075,0,0,0,0,0.00,0.00,0.00,0.00
2014-03-21 09:00:00,2,48280,0,0.00,2,2,0,2,43317,50000,2264,49824,0,0,0,0,0.00,0.00,0.00,0.00
2014-03-21 09:10:00,2,48906,0,0.00,2,2,0,2,45302,50000,1591,49950,0,0,0,0,0.00,0.00,0.00,0.00
2014-03-21 09:20:00,2,49763,0,0.00,2,2,0,2,48849,50000,399,50000,0,0,0,0,0.00,0.00,0.00,0.00
2014-03-21 09:30:00,2,48954,0,0.00,2,2,0,2,43875,50000,1936,50000,0,0,0,0,0.00,0.00,0.00,0.00
2014-03-21 09:40:00,2,49894,0,0.00,2,2,0,2,49339,50000,220,50000,0,0,0,0,0.00,0.00,0.00,0.00
2014-03-21 09:50:00,2,49414,0,0.00,2,2,0,2,46439,50000,1158,50000,0,0,0,0,0.00,0.00,0.00,0.00
2014-03-21 10:00:00,2,49720,0,0.00,2,2,0,2,48673,50000,476,50000,0,0,0,0,0.00,0.00,0.00,0.00
2014-03-21 10:10:00,2,49462,0,0.00,2,2,0,2,46852,50000,975,50000,0,0,0,0,0.00,0.00,0.00,0.00
2014-03-21 10:20:00,2,49898,0,0.00,2,2,0,2,49052,50000,282,50000,0,0,0,0,0.00,0.00,0.00,0.00
2014-03-21 10:30:00,2,50000,0,0.00,2,2,0,2,50000,50000,0,50000,0,0,0,0,0.00,0.00,0.00,0.00
2014-03-21 10:40:00,2,50000,0,0.00,2,2,0,2,50000,50000,0,50000,0,0,0,0,0.00,0.00,0.00,0.00
2014-03-21 10:50:00,2,49990,0,0.00,2,2,0,2,49899,50000,30,50000,0,0,0,0,0.00,0.00,0.00,0.00
2014-03-21 11:00:00,2,50000,0,0.00,2,2,0,2,50000,50000,0,50000,0,0,0,0,0.00,0.00,0.00,0.00
2014-03-21 11:10:00,2,50000,0,0.00,2,2,0,2,50000,50000,0,50000,0,0,0,0,0.00,0.00,0.00,0.00
2014-03-21 11:20:00,2,50000,0,0.00,2,2,0,2,50000,50000,0,50000,0,0,0,0,0.00,0.00,0.00,0.00
2014-03-21 11:30:00,2,50000,0,0.00,2,2,0,2,50000,50000,0,50000,0,0,0,0,0.00,0.00,0.00,0.00
2014-03-21 11:40:00,2,49983,0,0.00,2,2,0,2,49827,50000,52,50000,0,0,0,0,0.00,0.00,0.00,0.00
2014-03-21 11:50:00,2,50000,0,0.00,2,2,0,2,50000,50000,0,50000,0,0,0,0,0.00,0.00,0.00,0.00
2014-03-21 12:00:00,2,49888,0,0.00,2,2,0,2,49144,50000,260,50000,0,0,0,0,0.00,0.00,0.00,0.00
2014-03-21 12:10:00,2,49991,0,0.00,2,2,0,2,49907,50000,28,50000,0,0,0,0,0.00,0.00,0.00,0.00
2014-03-21 12:20:00,2,50000,0,0.00,2,2,0,2,50000,50000,0,50000,0,0,0,0,0.00,0.00,0.00,0.00
2014-03-21 12:30:00,2,50000,0,0.00,2,2,0,2,50000,50000,0,50000,0,0,0,0,0.00,0.00,0.00,0.00
2014-03-21 12:40:00,2,50000,0,0.00,2,2,0,2,50000,50000,0,50000,0,0,0,0,0.00,0.00,0.00,0.00
2014-03-21 12:50:00,2,50000,0,0.00,2,2,0,2,50000,50000,0,50000,0,0,0,0,0.00,0.00,0.00,0.00
2014-03-21 13:00:00,2,50000,0,0.00,2,2,0,2,50000,50000,0,50000,0,0,0,0,0.00,0.00,0.00,0.00
2014-03-21 13:10:00,2,49883,0,0.00,2,2,0,2,48826,50000,352,50000,0,0,0,0,0.00,0.00,0.00,0.00
2014-03-21 13:20:00,2,49887,0,0.00,2,2,0,2,49159,50000,257,50000,0,0,0,0,0.00,0.00,0.00,0.00
2014-03-21 13:30:00,2,50000,0,0.00,2,2,0,2,50000,50000,0,50000,0,0,0,0,0.00,0.00,0.00,0.00
2014-03-21 13:40:00,2,50000,0,0.00,2,2,0,2,50000,50000,0,50000,0,0,0,0,0.00,0.00,0.00,0.00
2014-03-21 13:50:00,2,50000,0,0.00,2,2,0,2,50000,50000,0,50000,0,0,0,0,0.00,0.00,0.00,0.00
2014-03-21 14:00:00,2,50000,0,0.00,2,2,0,2,50000,50000,0,50000,0,0,0,0,0.00,0.00,0.00,0.00
2014-03-21 14:10:00,2,49824,0,0.00,2,2,0,2,48239,50000,528,50000,0,0,0,0,0.00,0.00,0.00,0.00
2014-03-21 14:20:00,2,50000,0,0.00,2,2,0,2,50000,50000,0,50000,0,0,0,0,0.00,0.00,0.00,0.00
2014-03-21 14:30:00,2,50000,0,0.00,2,2,0,2,50000,50000,0,50000,0,0,0,0,0.00,0.00,0.00,0.00
2014-03-21 14:40:00,2,49871,0,0.00,2,2,0,2,48711,50000,387,50000,0,0,0,0,0.00,0.00,0.00,0.00
2014-03-21 14:50:00,2,50000,0,0.00,2,2,0,2,50000,50000,0,50000,0,0,0,0,0.00,0.00,0.00,0.00
2014-03-21 15:00:00,2,50000,0,0.00,2,2,0,2,50000,50000,0,50000,0,0,0,0,0.00,0.00,0.00,0.00
2014-03-21 15:10:00,2,50000,0,0.00,2,2,0,2,50000,50000,0,50000,0,0,0,0,0.00,0.00,0.00,0.00
2014-03-21 15:20:00,2,50000,0,0.00,2,2,0,2,50000,50000,0,50000,0,0,0,0,0.00,0.00,0.00,0.00
2014-03-21 15:30:00,2,50000,0,0.00,2,2,0,2,50000,50000,0,50000,0,0,0,0,0.00,0.00,0.00,0.00
2014-03-21 15:40:00,2,50000,0,0.00,2,2,0,2,50000,50000,0,50000,0,0,0,0,0.00,0.00,0.00,0.00
2014-03-21 15:50:00,2,50000,0,0.00,2,2,0,2,50000,50000,0,50000,0,0,0,0,0.00,0.00,0.00,0.00
2014-03-21 16:00:00,2,50000,0,0.00,2,2,0,2,50000,50000,0,50000,0,0,0,0,0.00,0.00,0.00,0.00
2014-03-21 16:10:00,2,50000,0,0.00,2,2,0,2,50000,50000,0,50000,0,0,0,0,0.00,0.00,0.00,0.00
2014-03-21 16:20:00,2,50000,0,0.00,2,2,0,2,50000,50000,0,50000,0,0,0,0,0.00,0.00,0.00,0.00
2014-03-21 16:30:00,2,50000,0,0.00,2,2,0,2,50000,50000,0,50000,0,0,0,0,0.00,0.00,0.00,0.00
2014-03-21 16:40:00,2,50000,0,0.00,2,2,0,2,50000,50000,0,50000,0,0,0,0,0.00,0.00,0.00,0.00
2014-03-21 16:50:00,2,50000,0,0.00,2,2,0,2,50000,50000,0,50000,0,0,0,0,0.00,0.00,0.00,0.00
2014-03-21 17:00:00,2,50000,0,0.00,2,2,0,2,50000,50000,0,50000,0,0,0,0,0.00,0.00,0.00,0.00
2014-03-21 17:10:00,2,49929,0,0.00,2,2,0,2,49287,50000,214,50000,0,0,0,0,0.00,0.00,0.00,0.00
2014-03-21 17:20:00,2,50000,0,0.00,2,2,0,2,50000,50000,0,50000,0,0,0,0,0.00,0.00,0.00,0.00
2014-03-21 17:30:00,2,50000,0,0.00,2,2,0,2,50000,50000,0,50000,0,0,0,0,0.00,0.00,0.00,0.00
2014-03-21 17:40:00,2,50000,0,0.00,2,2,0,2,50000,50000,0,50000,0,0,0,0,0.00,0.00,0.00,0.00
2014-03-21 17:50:00,2,50000,0,0.00,2,2,0,2,50000,50000,0,50000,0,0,0,0,0.00,0.00,0.00,0.00
2014-03-21 18:00:00,2,49699,0,0.00,2,2,0,2,46990,50000,903,50000,0,0,0,0,0.00,0.00,0.00,0.00
2014-03-21 18:10:00,2,50000,0,0.00,2,2,0,2,50000,50000,0,50000,0,0,0,0,0.00,0.00,0.00,0.00
2014-03-21 18:20:00,2,50000,0,0.00,2,2,0,2,50000,50000,0,50000,0,0,0,0,0.00,0.00,0.00,0.00
2014-03-21 18:30:00,2,50000,0,0.00,2,2,0,2,50000,50000,0,50000,0,0,0,0,0.00,0.00,0.00,0.00
2014-03-21 18:40:00,2,50000,0,0.00,2,2,0,2,50000,50000,0,50000,0,0,0,0,0.00,0.00,0.00,0.00
2014-03-21 18:50:00,2,50000,0,0.00,2,2,0,2,50000,50000,0,50000,0,0,0,0,0.00,0.00,0.00,0.00
2014-03-21 19:00:00,2,50000,0,0.00,2,2,0,2,50000,50000,0,50000,0,0,0,0,0.00,0.00,0.00,0.00
2014-03-21 19:10:00,2,50000,0,0.00,2,2,0,2,50000,50000,0,50000,0,0,0,0,0.00,0.00,0.00,0.00
2014-03-21 19:20:00,2,50000,0,0.00,2,2,0,2,50000,50000,0,50000,0,0,0,0,0.00,0.00,0.00,0.00
2014-03-21 19:30:00,2,50000,0,0.00,2,2,0,2,50000,50000,0,50000,0,0,0,0,0.00,0.00,0.00,0.00
2014-03-21 19:40:00,2,50000,0,0.00,2,2,0,2,50000,50000,0,50000,0,0,0,0,0.00,0.00,0.00,0.00
2014-03-21 19:50:00,2,49695,0,0.00,2,2,0,2,46953,50000,914,50000,0,0,0,0,0.00,0.00,0.00,0.00
2014-03-21 20:00:00,2,49998,0,0.00,2,2,0,2,49983,50000,5,50000,0,0,0,0,0.00,0.00,0.00,0.00
2014-03-21 20:10:00,2,50000,0,0.00,2,2,0,2,50000,50000,0,50000,0,0,0,0,0.00,0.00,0.00,0.00
2014-03-21 20:20:00,2,50000,0,0.00,2,2,0,2,50000,50000,0,50000,0,0,0,0,0.00,0.00,0.00,0.00
2014-03-21 20:30:00,2,50000,0,0.00,2,2,0,2,50000,50000,0,50000,0,0,0,0,0.00,0.00,0.00,0.00
2014-03-21 20:40:00,2,50000,0,0.00,2,2,0,2,50000,50000,0,50000,0,0,0,0,0.00,0.00,0.00,0.00
2014-03-21 20:50:00,2,50000,0,0.00,2,2,0,2,50000,50000,0,50000,0,0,0,0,0.00,0.00,0.00,0.00
2014-03-21 21:00:00,2,50000,0,0.00,2,2,0,2,50000,50000,0,50000,0,0,0,0,0.00,0.00,0.00,0.00
2014-03-21 21:10:00,2,50000,0,0.00,2,2,0,2,50000,50000,0,50000,0,0,0,0,0.00,0.00,0.00,0.00
2014-03-21 21:20:00,2,50000,0,0.00,2,2,0,2,50000,50000,0,50000,0,0,0,0,0.00,0.00,0.00,0.00
2014-03-21 21:30:00,2,50000,0,0.00,2,2,0,2,50000,50000,0,50000,0,0,0,0,0.00,0.00,0.00,0.00
2014-03-21 21:40:00,2,50000,0,0.00,2,2,0,2,50000,50000,0,50000,0,0,0,0,0.00,0.00,0.00,0.00
2014-03-21 21:50:00,2,49045,0,0.00,2,2,0,2,44896,50000,1916,50000,0,0,0,0,0.00,0.00,0.00,0.00
2014-03-21 22:00:00,2,48985,0,0.00,2,2,0,2,44596,50000,1801,50000,0,0,0,0,0.00,0.00,0.00,0.00
2014-03-21 22:10:00,2,49338,0,0.00,2,2,0,2,46482,50000,1328,50000,0,0,0,0,0.00,0.00,0.00,0.00
2014-03-21 22:20:00,2,47374,0,0.00,2,2,0,2,42054,50000,2806,48406,0,0,0,0,0.00,0.00,0.00,0.00
2014-03-21 22:30:00,2,48584,0,0.00,2,2,0,2,41369,50000,2915,50000,0,0,0,0,0.00,0.00,0.00,0.00
2014-03-21 22:40:00,2,49053,0,0.00,2,2,0,2,45665,50000,1510,49857,0,0,0,0,0.00,0.00,0.00,0.00
2014-03-21 22:50:00,2,48290,0,0.00,2,2,0,2,40104,50000,3079,50000,0,0,0,0,0.00,0.00,0.00,0.00
2014-03-21 23:00:00,2,48412,0,0.00,2,2,0,2,43562,50000,1950,49122,0,0,0,0,0.00,0.00,0.00,0.00
2014-03-21 23:10:00,2,49918,0,0.00,2,2,0,2,49184,50000,245,50000,0,0,0,0,0.00,0.00,0.00,0.00
2014-03-21 23:20:00,2,45702,0,0.00,2,2,0,2,38967,50000,3639,46148,0,0,0,0,0.00,0.00,0.00,0.00
2014-03-21 23:30:00,2,42579,0,0.00,2,2,0,2,36417,48750,3643,42232,0,0,0,0,0.00,0.00,0.00,0.00
2014-03-21 23:40:00,2,40922,0,0.00,2,2,0,2,27722,50000,6266,42031,0,0,0,0,0.00,0.00,0.00,0.00
2014-03-21 23:50:00,2,42906,0,0.00,2,2,0,2,30773,50000,5977,44290,0,0,0,0,0.00,0.00,0.00,0.00
